Milas, Turkey

8:50 AM +03 on March 30, 2017 (GMT +0300)
Bodrum

Weather History for LTFE - March, 2013

Change the Weather History Date:

Saturday, March 2, 2013

  Actual Average Record
Temperature  
Mean Temperature 50 °F -  
Max Temperature 64 °F - - ()
Min Temperature 35 °F - - ()
Degree Days  
Heating Degree Days 16    
Moisture  
Dew Point 41 °F    
Average Humidity 75    
Maximum Humidity 93    
Minimum Humidity 45    
Precipitation  
Precipitation 0.00 in - - ()
Sea Level Pressure  
Sea Level Pressure 29.97 in    
Wind  
Wind Speed 5 mph ()    
Max Wind Speed 15 mph    
Max Gust Speed -    
Visibility 6.2 miles    
Events      
T = Trace of Precipitation, MM = Missing Value Source: Averaged Metar Reports

Daily Weather History Graph

Daily Weather History Graph

Search for Another Location

Airport or City:

Trip Planner

Search our weather history database for the weather conditions in past years. The results will help you decide how hot, cold, wet, or windy it might be!

Date:

Astronomy

Mar. 02, 2013 Rise Set
Actual Time 6:39 AM EET 6:04 PM EET
Civil Twilight 6:12 AM EET 6:30 PM EET
Nautical Twilight 5:42 AM EET 7:00 PM EET
Astronomical Twilight 5:12 AM EET 7:30 PM EET
Moon 11:14 PM EET (3/2) 9:00 AM EET (3/2)
Length of Visible Light 12h 17m
Length of Day
11h 25m
Waning Gibbous, 77% of the Moon is Illuminated
Mar 2
Waning Gibbous
Mar 4
Last Quarter
Mar 11
New
Mar 19
First Quarter
Mar 27
Full

Hourly Weather History & Observations

Time (EET) Temp. Windchill Dew Point Humidity Pressure Visibility Wind Dir Wind Speed Gust Speed Precip Events Conditions
12:20 AM 39.2 °F 34.2 °F 37.4 °F 93% 30.01 in - SE 6.9 mph - N/A   Clear
12:50 AM 39.2 °F - 37.4 °F 93% 30.01 in - ESE 2.3 mph - N/A   Clear
1:20 AM 39.2 °F - 37.4 °F 93% 30.01 in - Variable 2.3 mph - N/A   Clear
1:50 AM 37.4 °F 33.8 °F 35.6 °F 93% 30.01 in - East 4.6 mph - N/A   Clear
2:20 AM 37.4 °F 33.8 °F 35.6 °F 93% 30.01 in - SE 4.6 mph - N/A   Clear
2:50 AM 39.2 °F 35.9 °F 35.6 °F 87% 30.01 in - SE 4.6 mph - N/A   Clear
3:20 AM 37.4 °F 33.8 °F 35.6 °F 93% 29.98 in - SE 4.6 mph - N/A   Clear
3:50 AM 37.4 °F 34.9 °F 35.6 °F 93% 30.01 in - SE 3.5 mph - N/A   Clear
4:20 AM 35.6 °F 32.8 °F 33.8 °F 93% 29.98 in - SE 3.5 mph - N/A   Clear
4:50 AM 37.4 °F 33.8 °F 33.8 °F 87% 30.01 in - SE 4.6 mph - N/A   Clear
5:20 AM 35.6 °F 30.7 °F 33.8 °F 93% 30.01 in - SE 5.8 mph - N/A   Clear
5:50 AM 35.6 °F 30.7 °F 32.0 °F 87% 30.01 in - ESE 5.8 mph - N/A   Clear
6:20 AM 35.6 °F 30.7 °F 33.8 °F 93% 30.01 in - ESE 5.8 mph - N/A   Clear
6:50 AM 35.6 °F 32.8 °F 33.8 °F 93% 30.01 in - ESE 3.5 mph - N/A   Clear
7:20 AM 37.4 °F 34.9 °F 35.6 °F 93% 30.01 in - ESE 3.5 mph - N/A   Clear
7:50 AM 39.2 °F 35.9 °F 35.6 °F 87% 30.01 in - ESE 4.6 mph - N/A   Clear
8:20 AM 41.0 °F 37.1 °F 37.4 °F 87% 30.01 in - East 5.8 mph - N/A   Clear
8:50 AM 44.6 °F 42.2 °F 41.0 °F 87% 30.01 in - East 4.6 mph - N/A   Clear
9:20 AM 48.2 °F - 42.8 °F 82% 30.01 in - East 3.5 mph - N/A   Clear
9:50 AM 51.8 °F - 44.6 °F 76% 30.01 in - Variable 2.3 mph - N/A   Clear
10:20 AM 57.2 °F - 44.6 °F 63% 30.01 in - Variable 1.2 mph - N/A   Clear
10:50 AM 59.0 °F - 44.6 °F 59% 29.98 in - Calm Calm - N/A   Clear
11:20 AM 60.8 °F - 42.8 °F 52% 29.98 in - WNW 3.5 mph - N/A   Clear
11:50 AM 62.6 °F - 44.6 °F 52% 29.98 in - Variable 3.5 mph - N/A   Clear
12:20 PM 64.4 °F - 42.8 °F 45% 29.98 in 6.2 mi West 3.5 mph - N/A   Mostly Cloudy
12:50 PM 62.6 °F - 41.0 °F 45% 29.95 in 6.2 mi Variable 3.5 mph - N/A   Mostly Cloudy
1:20 PM 62.6 °F - 44.6 °F 52% 29.95 in 6.2 mi SE 13.8 mph - N/A   Mostly Cloudy
1:50 PM 62.6 °F - 44.6 °F 52% 29.95 in 6.2 mi SE 12.7 mph - N/A   Mostly Cloudy
2:20 PM 62.6 °F - 44.6 °F 52% 29.92 in 6.2 mi SSE 13.8 mph - N/A   Mostly Cloudy
2:50 PM 62.6 °F - 44.6 °F 52% 29.92 in 6.2 mi SSE 15.0 mph - N/A   Mostly Cloudy
3:20 PM 62.6 °F - 46.4 °F 55% 29.92 in 6.2 mi SE 13.8 mph - N/A   Mostly Cloudy
3:50 PM 62.6 °F - 46.4 °F 55% 29.92 in 6.2 mi SE 10.4 mph - N/A   Mostly Cloudy
4:20 PM 62.6 °F - 46.4 °F 55% 29.92 in 6.2 mi SE 10.4 mph - N/A   Mostly Cloudy
4:50 PM 60.8 °F - 46.4 °F 59% 29.92 in 6.2 mi SE 12.7 mph - N/A   Mostly Cloudy
5:20 PM 59.0 °F - 44.6 °F 59% 29.92 in 6.2 mi SE 13.8 mph - N/A   Mostly Cloudy
5:50 PM 59.0 °F - 42.8 °F 55% 29.95 in 6.2 mi SSE 9.2 mph - N/A   Mostly Cloudy
6:20 PM 57.2 °F - 44.6 °F 63% 29.95 in 6.2 mi SE 8.1 mph - N/A   Mostly Cloudy
6:50 PM 55.4 °F - 44.6 °F 67% 29.95 in 6.2 mi SSE 4.6 mph - N/A   Mostly Cloudy
7:20 PM 55.4 °F - 44.6 °F 67% 29.95 in 6.2 mi ENE 3.5 mph - N/A   Mostly Cloudy
7:50 PM 51.8 °F - 46.4 °F 82% 29.95 in 6.2 mi NE 5.8 mph - N/A   Mostly Cloudy
8:20 PM 53.6 °F - 46.4 °F 77% 29.95 in 6.2 mi ENE 5.8 mph - N/A   Mostly Cloudy
8:50 PM 53.6 °F - 44.6 °F 72% 29.95 in 6.2 mi East 4.6 mph - N/A   Mostly Cloudy
9:20 PM 51.8 °F - 46.4 °F 82% 29.95 in 6.2 mi SE 3.5 mph - N/A   Mostly Cloudy
9:50 PM 51.8 °F - 44.6 °F 76% 29.95 in 6.2 mi SE 3.5 mph - N/A   Mostly Cloudy
10:20 PM 51.8 °F - 46.4 °F 82% 29.95 in 6.2 mi SE 4.6 mph - N/A   Mostly Cloudy
10:50 PM 50.0 °F - 46.4 °F 87% 29.95 in 6.2 mi SE 3.5 mph - N/A   Mostly Cloudy
11:20 PM 50.0 °F - 44.6 °F 82% 29.95 in 6.2 mi SSE 3.5 mph - N/A   Mostly Cloudy
11:50 PM 48.2 °F - 44.6 °F 87% 29.92 in 6.2 mi ESE 4.6 mph - N/A   Mostly Cloudy